Reflectivity
-14 -17 -20 -16 -5 9 -10 -20 -20 -20 -20 -20 -20 -20 -20 -20 -20 -20 -20 -20 -20 -20 -20 -20 -20 -20 -13 -20 -20 -20 -8 16 35 -12 10 -20 -20 -20 -20 -20 -20 -20 -20 -20 -20
10 -3 -16 -20 -20 -11 13 -20 -20 -20 -20 -20 -20 -20 -20 -20 -20 -20 -20 -20 -20 -20 -20 -20 -20 -20 -3 -20 -20 -3 10 -12 33 22 -1 -20 -20 -20 -20 -20 -20 -20 -20 -20 -20
19 5 -3 -4 0 -1 6 -2 -20 -20 -20 -20 -20 -20 -20 -20 -20 -20 -20 -20 -20 -20 -20 -20 -20 17 11 -20 -20 -16 12 -3 15 41 -3 -20 -20 -20 -20 -20 -20 -20 -20 -20 -20
10 2 -5 -4 -6 -7 -3 -15 0 -4 -20 -20 -20 -20 -20 -20 -20 -20 -20 -20 -20 -20 -20 -20 -18 14 14 -7 -20 -18 -20 2 11 28 34 -16 -20 -20 -20 -20 -20 -20 -20 -20 -20
11 16 14 -20 -20 -20 -10 -12 11 -2 -20 -20 -20 -20 -20 -12 -20 -20 -20 -20 -20 -20 -20 -20 -20 -7 11 -20 -20 20 13 -7 -17 16 35 19 -20 -20 -20 -20 -20 -20 -20 -20 -20
14 15 13 17 6 -20 -20 -20 -18 -12 -20 -20 -20 -20 -20 -20 -20 -20 -20 -20 -20 -20 -20 -16 -13 9 -20 -20 -14 -20 12 23 -20 17 20 35 3 -20 -20 -20 -20 -20 -20 -20 -20
9 12 16 15 12 16 12 6 -20 -20 -20 -20 -20 -20 -20 -20 -20 -20 -20 -20 -20 -20 -20 -20 6 29 -13 -20 -20 -20 -20 -20 -20 -4 14 24 36 -16 -15 -20 -20 -20 -20 -20 -20
15 -2 -17 4 -15 -3 -9 -7 -2 -20 -20 -20 -20 -20 -18 -20 -20 -20 -20 -20 -20 -20 -20 23 24 25 -20 -20 -20 -20 3 -1 -19 -20 15 18 15 36 14 -20 -20 -20 -20 -20 -20
15 17 16 17 0 -20 -20 -20 -20 -20 -20 -20 -20 -20 -19 -20 -20 -20 -20 -20 -20 -20 -20 -20 -11 32 -1 -20 -20 -8 -20 -18 6 -20 -17 5 18 34 28 -13 -20 -20 -20 -20 -20
10 9 4 -3 -5 -20 -20 -20 -20 -20 -20 -20 -20 -16 -20 -20 -20 -20 -20 -20 -20 -20 -20 -20 -20 -18 19 -20 -18 -20 -20 -20 -5 -19 -20 -20 3 21 26 23 8 -10 -14 -17 -20
-4 -3 -3 -4 -15 -20 -20 -20 -20 -20 -20 -20 -20 -20 -20 -20 -20 -20 -20 -20 -20 -20 -20 -20 3 -19 -20 -20 -20 -20 -20 -20 2 -20 6 -20 10 14 22 19 19 -20 -4 -20 -20
-20 -20 -7 -16 -20 -20 -20 -7 -20 -20 -20 -20 -20 -20 -20 -20 -20 -20 -20 -20 -20 -20 -20 -20 -15 -20 -20 -1 -20 -20 -20 -20 -20 -20 17 -20 -0 10 11 17 27 1 -2 6 -20
-20 -20 -20 -20 -20 -20 -20 -20 -17 -20 -5 -20 -20 -20 -20 -20 -20 -20 -20 -20 -20 -20 -20 -20 -20 -20 -20 -20 10 -20 -20 -20 -20 -20 17 -1 4 14 6 4 16 15 -13 8 -20
-20 -20 -20 -20 -20 -20 -20 -20 -8 -20 -19 -20 -20 -20 -20 -20 -20 -20 -20 -20 -20 -20 -20 -20 -20 -20 -20 -20 -20 -20 -20 -20 -17 -20 -20 -20 -20 -18 8 -10 1 -3 -11 20 9
-10 -20 -20 -20 -20 -20 -20 -20 -20 -15 -20 -20 -20 -20 -20 -20 -20 -20 -20 -20 -20 -20 -20 -20 -20 -20 -20 -20 -20 -20 -20 -18 -8 -20 17 -8 -12 -20 -11 -16 -20 -20 -20 -16 4
-20 -20 -20 -20 -20 -20 -20 -20 -20 -16 -19 -20 -20 -20 -20 -20 -20 -20 -20 -20 -20 -20 -20 -20 -20 -20 -20 -20 -20 -20 -20 36 6 -20 20 -20 -20 -20 -20 -20 -12 -20 -20 -16 10
-20 -20 -20 -20 -20 -20 -20 -17 2 -0 -20 -20 -20 -20 -20 -20 -20 -20 -20 -20 -20 -20 -20 -20 -20 -20 -17 17 15 21 10 25 -14 -20 -1 -20 -5 -20 -20 -17 -4 -19 -20 -20 -17
-20 -20 -20 -20 -20 -20 -20 5 9 -20 -20 -20 -20 -20 -20 -20 -20 -20 -20 -20 -20 -20 -20 -20 -20 -20 -19 16 15 12 19 21 -20 -20 -19 4 -20 -20 -20 -16 -20 -14 -20 -20 -20
-20 -20 -20 -20 2 -7 -3 9 -20 -20 -20 -20 -20 -20 -20 -20 -20 -20 -20 -20 -20 -20 -20 -20 -20 -20 -20 -17 -20 18 17 -15 -20 -20 -15 0 -20 -20 -20 -20 -20 -20 -20 -20 -7
-20 -20 -20 -20 17 18 13 -11 -18 -20 -20 -20 11 -20 -2 8 -6 -20 -20 -20 -20 -20 -14 -16 -20 -20 -20 14 5 11 5 16 19 18 -20 -20 -20 -20 -20 -20 -20 -15 -20 -20 -20
-20 -20 -20 -20 -20 -17 9 16 -4 -20 -20 -20 -0 18 -19 8 10 18 -19 -20 -20 -20 -13 -1 -20 -20 -20 -19 -9 -20 -19 24 24 14 5 3 -17 -20 -20 -20 -6 -20 -20 -20 -20
-20 -20 -20 -20 -20 -20 -20 13 1 28 14 -14 -20 -20 4 1 29 13 1 -20 -18 -20 -20 -8 -20 -20 -20 -20 -20 -20 -20 -20 -19 -19 -20 -19 -16 -20 -20 -4 12 -7 -20 -20 -20
10 -20 -20 -20 -19 -2 17 -11 -20 -18 5 11 -2 -20 -20 -14 19 -8 -20 -8 -20 5 5 -2 -11 -20 -20 -20 -20 -20 -20 -20 -0 -5 1 -20 -20 -20 -20 -16 5 -10 -20 -20 -20
29 4 -20 -20 -2 -20 -20 -6 -18 -5 0 15 7 7 -19 -20 -13 24 -17 -9 8 -16 12 4 6 -20 -20 -19 -6 -10 -20 -20 -20 -20 -20 -20 -20 -20 -20 -20 -3 -15 -20 -20 -20
25 -6 -2 -20 -20 -20 -20 -11 -16 -13 12 5 7 14 19 2 -20 -8 -0 -17 -3 -20 -20 18 -10 -20 -20 -20 -4 4 15 5 -20 -20 -20 -20 -20 -20 -20 -20 -20 -14 -20 -20 -20
8 8 -20 -20 -20 -20 -20 -20 -20 -12 -4 -2 7 -3 -8 -2 3 5 5 -20 1 22 -14 7 16 -20 -20 -20 -20 -20 -18 6 -20 -20 -20 -20 -20 -20 -20 -20 -20 -20 -20 -20 -20
16 -13 14 -7 -20 -20 -20 -20 -20 -6 -20 -20 -20 -16 -20 -20 4 -6 -20 -20 -5 14 3 8 17 -18 -20 -20 -20 -20 -20 -20 -20 -20 -20 -20 -20 -20 -20 -20 -20 -20 -20 -20 -20
Wind_Speed
15 15 15 15 14 15 14 15 13 13 15 15 14 13 14 11 5 3 6 9 9 16 6 3 5 7 6 4 2 1 3 15 6 10 10 9 7 6 3 8 6 3 8 12 10
16 16 16 16 17 15 15 16 15 14 14 14 15 13 12 10 7 9 9 13 12 9 3 5 6 10 6 6 3 4 7 10 16 12 7 12 6 5 4 4 6 7 10 17 12
17 17 17 17 17 18 17 17 16 14 15 14 14 12 10 7 6 7 6 21 13 10 5 4 6 9 9 5 6 6 5 5 15 11 9 14 16 9 6 1 6 12 15 12 11
17 17 17 18 18 18 18 17 16 15 15 14 13 11 8 3 5 4 3 14 16 8 5 6 5 5 7 8 8 4 7 12 15 14 12 12 14 15 7 2 5 19 19 12 14
22 20 17 16 18 18 18 18 17 16 15 14 12 9 3 4 11 6 6 6 6 8 9 11 7 5 6 7 8 11 4 13 16 18 12 16 13 8 16 7 10 16 16 14 10
21 21 22 23 18 18 18 17 17 17 16 14 12 8 2 10 8 8 10 7 9 8 6 7 7 9 5 8 9 4 12 6 15 20 21 17 19 9 11 3 12 17 13 14 14
23 24 21 24 23 23 22 21 20 17 16 15 12 6 7 19 4 4 10 8 7 9 5 6 6 3 2 3 2 6 9 3 4 12 11 17 24 22 15 7 13 14 13 13 12
20 22 24 23 23 23 24 26 23 20 18 14 10 6 11 8 15 13 6 3 6 8 8 6 2 5 3 5 6 5 5 9 9 11 6 20 26 26 10 6 9 12 13 14 13
22 23 24 24 24 25 25 27 27 23 15 10 4 5 10 5 11 10 10 8 5 3 4 1 7 4 3 4 3 5 5 9 7 20 9 17 3 26 21 13 14 12 13 13 12
24 25 25 26 27 26 28 28 26 14 5 6 7 3 7 9 4 8 7 10 6 6 4 3 4 5 6 7 16 12 10 7 11 14 13 19 11 9 23 14 15 13 12 12 14
25 25 26 27 27 29 21 8 5 1 4 11 10 7 6 15 4 6 8 9 6 5 7 6 7 15 19 17 4 4 2 7 6 12 13 19 20 10 12 13 10 13 14 14 15
24 25 27 28 31 30 7 3 4 4 12 15 24 21 19 2 5 6 13 9 10 11 7 3 18 12 6 9 8 9 6 7 4 9 16 15 21 20 15 17 19 19 18 17 13
25 26 28 29 31 7 11 6 12 7 6 11 20 16 23 17 12 12 19 9 13 13 19 15 7 21 19 15 15 14 13 7 5 3 12 9 13 13 20 18 11 17 24 22 24
25 27 28 29 11 10 9 14 15 12 6 10 7 10 10 8 11 11 19 15 7 19 14 15 19 6 15 18 14 16 11 11 8 6 6 10 6 18 25 19 17 18 19 23 23
26 28 27 26 7 4 8 16 15 2 4 7 5 3 8 18 4 15 23 10 13 11 11 11 15 21 20 21 13 8 4 9 10 13 7 7 3 8 21 25 25 25 21 24 25
25 29 28 9 3 13 13 10 4 3 13 7 2 2 7 14 4 4 15 5 5 7 12 20 5 16 14 18 17 9 5 9 5 4 5 14 13 7 14 31 22 21 20 23 24
26 28 26 8 5 6 8 5 3 9 6 4 3 4 5 9 12 2 17 21 11 11 13 10 20 4 7 17 11 6 11 3 4 3 9 9 10 17 4 13 19 23 23 22 24
26 30 12 10 8 6 1 3 11 7 10 4 4 3 7 6 5 6 13 16 20 6 5 8 7 21 7 10 11 18 12 7 8 8 5 6 12 14 9 5 9 17 19 20 22
22 8 7 5 7 3 3 10 6 5 5 9 10 3 6 8 6 9 12 18 15 19 8 9 8 4 12 5 16 9 11 9 4 3 2 6 5 6 1 3 4 18 19 23 23
6 5 6 5 10 1 5 15 8 5 15 8 7 6 5 6 8 13 11 10 19 22 19 5 3 5 1 5 4 17 14 6 3 3 4 5 4 7 7 10 8 16 20 20 20
3 4 7 6 6 1 6 5 8 11 11 8 7 8 10 7 5 10 7 10 21 22 24 5 4 3 8 10 16 5 14 5 6 4 2 1 7 3 9 8 11 12 16 21 22
1 3 7 8 4 3 4 9 8 10 11 8 8 11 12 15 8 7 7 9 4 13 27 27 2 5 9 3 7 5 5 16 9 7 9 5 8 4 7 9 9 14 16 17 20
2 4 7 4 2 3 7 12 7 15 14 8 9 6 10 16 9 11 5 7 14 6 13 16 6 3 3 6 4 11 15 21 4 4 10 12 9 5 5 8 9 17 17 18 20
3 3 5 4 1 4 6 7 12 9 13 9 11 11 12 9 8 7 8 11 16 17 16 15 9 11 11 5 7 6 7 6 6 5 7 20 6 3 4 8 10 15 17 18 18
2 4 5 5 4 5 2 6 13 12 7 6 6 16 9 5 15 4 10 19 16 18 12 16 13 11 8 4 4 5 17 19 10 17 9 6 9 12 16 16 14 15 16 19 19
3 2 3 4 5 6 5 4 12 7 7 13 11 19 17 13 13 23 17 12 12 8 12 11 8 15 8 3 7 6 13 14 23 12 16 3 11 3 9 10 13 17 20 19 19
3 3 4 5 3 3 5 6 8 12 8 7 15 15 18 20 14 12 14 22 20 21 17 9 3 5 7 7 6 6 15 21 14 18 11 12 12 8 13 18 20 19 20 19 19
Wind_Direction
358 356 348 340 327 316 314 309 309 311 311 312 315 318 320 308 282 208 221 214 197 245 295 256 263 203 144 120 131 56 184 208 255 359 318 333 358 348 29 91 64 38 152 152 145
358 357 352 347 333 322 310 305 307 308 305 309 309 312 322 308 269 249 227 218 226 152 194 226 241 201 178 148 172 194 221 214 157 272 315 314 340 322 82 72 54 62 79 128 123
356 354 353 350 344 332 321 313 308 307 303 303 305 307 323 316 277 235 242 219 213 227 215 271 281 282 185 128 198 197 212 115 179 246 287 327 353 325 103 45 176 155 141 140 132
347 351 351 348 344 342 330 319 311 307 301 299 302 304 322 292 269 183 38 185 195 179 216 242 231 225 182 197 187 232 208 170 167 172 283 288 323 333 359 295 155 158 152 146 151
2 355 344 340 339 340 338 330 318 310 303 300 300 300 320 228 249 206 130 173 173 164 216 223 239 211 212 194 241 237 246 182 164 178 217 272 286 332 299 297 126 142 149 153 151
357 354 348 347 332 332 333 331 326 315 306 298 294 294 214 252 241 231 162 158 161 159 204 227 237 213 268 222 214 241 235 213 191 179 194 245 270 360 297 29 135 149 160 162 162
346 348 347 344 339 340 330 324 319 316 303 293 285 258 240 237 218 61 164 174 184 170 185 221 267 294 341 246 231 235 244 95 195 203 203 211 280 255 270 236 162 163 166 167 170
348 350 343 334 331 334 327 321 310 299 290 278 268 259 252 248 231 251 187 195 187 188 191 187 158 255 190 308 350 297 188 210 166 163 167 167 221 249 244 179 194 168 174 174 172
350 346 343 337 335 330 325 315 304 295 275 254 248 198 258 241 224 226 171 164 200 212 161 242 125 235 198 156 13 268 216 195 168 184 153 191 179 203 235 236 192 177 178 175 166
345 341 341 337 333 330 323 314 289 277 279 205 252 235 263 232 220 188 193 150 168 153 77 119 211 176 225 173 206 200 201 206 189 186 175 194 243 233 202 201 184 176 177 176 171
344 343 340 337 331 326 324 328 353 16 252 197 196 217 276 212 114 186 172 148 147 152 176 191 197 214 198 219 12 317 241 225 215 174 175 194 214 224 204 168 185 187 179 180 174
343 340 337 335 331 320 312 236 306 243 284 243 251 238 258 139 192 189 148 159 178 201 158 166 223 214 241 216 215 257 270 284 267 179 192 197 213 215 219 211 188 188 183 179 167
343 339 338 333 323 333 322 274 332 351 266 255 224 231 224 219 224 192 169 176 191 196 190 203 171 211 206 217 207 219 233 233 250 114 207 181 246 220 231 229 210 200 184 179 175
337 335 335 341 336 340 294 352 334 322 279 280 218 253 198 174 240 206 181 169 205 205 195 226 234 226 208 215 199 214 213 251 244 147 213 203 250 213 223 225 213 208 193 181 175
336 331 330 333 272 255 287 328 317 289 305 253 221 266 152 175 153 204 178 196 195 171 177 216 192 208 221 230 201 222 155 292 252 207 340 191 271 268 196 220 217 205 200 181 174
330 324 324 327 234 264 282 296 314 224 247 278 145 171 126 199 233 51 168 197 187 222 213 212 230 200 214 222 215 140 132 247 109 89 224 224 196 235 194 205 204 201 193 179 173
333 323 319 300 253 288 316 332 209 221 271 240 227 190 196 195 221 204 183 201 197 197 209 212 226 219 172 201 183 124 118 221 95 178 235 204 205 245 260 200 198 184 184 174 168
331 319 310 291 267 250 189 237 233 206 231 295 31 188 191 158 221 211 189 204 227 237 169 182 213 202 174 199 176 169 168 175 175 190 227 167 222 232 230 228 210 189 171 158 164
331 303 299 273 311 155 170 222 230 198 266 4 345 222 214 213 188 196 212 215 214 224 212 179 236 146 167 170 151 171 201 195 21 240 135 207 256 295 297 134 143 158 155 163 164
322 299 277 255 3 345 186 232 261 296 323 349 315 296 326 325 240 187 188 215 221 221 234 264 208 201 161 127 177 173 165 176 138 229 205 244 219 221 206 206 181 167 166 160 156
351 333 269 334 18 175 270 226 260 269 313 301 301 302 276 300 237 277 230 229 200 206 217 215 153 268 132 203 195 163 171 158 155 221 199 223 254 230 229 202 169 156 158 153 150
270 301 280 354 2 286 284 343 352 336 316 285 264 273 261 279 269 257 224 292 305 211 203 216 168 175 206 231 191 247 220 185 169 197 219 149 284 342 280 185 148 139 141 142 143
247 250 289 99 272 325 10 338 338 344 329 318 298 293 310 295 289 266 324 286 310 277 204 206 213 89 58 329 251 206 208 199 152 92 194 208 235 341 62 114 140 139 141 139 136
266 305 300 23 86 119 338 316 321 325 315 336 320 338 350 327 317 286 284 302 316 310 271 183 186 206 204 206 149 222 208 217 171 146 177 222 156 229 153 145 140 140 138 139 137
222 241 197 288 302 303 264 288 294 307 319 354 309 317 351 300 314 25 345 333 308 311 282 225 207 197 227 184 209 224 200 190 202 213 192 199 184 194 188 172 159 142 134 138 140
216 241 319 253 279 286 313 258 279 283 325 307 291 321 307 288 285 298 316 310 283 315 344 306 239 209 234 146 209 223 211 211 218 211 242 244 237 179 137 126 149 152 149 146 144
244 276 222 218 213 216 254 239 276 303 295 299 307 301 294 293 290 277 279 273 262 270 286 269 255 136 217 151 85 294 203 207 221 225 190 201 220 147 157 164 163 156 153 148 143